owner,sensor,date,latitude,longitude,vertical_datum,wind_speed,wind_to_direction,wind_speed_of_gust,qcFlag 
DISL,ioos:station:DISL:PPTA:1,2015-05-01T00:00:00Z,30.2791,-87.5561,0.0,4.97,243.5,-9999.0,'1111122,1111122,1111122' 
DISL,ioos:station:DISL:PPTA:1,2015-05-01T00:30:00Z,30.2791,-87.5561,0.0,3.76,253.5,-9999.0,'1111122,1111122,1111122' 
DISL,ioos:station:DISL:PPTA:1,2015-05-01T01:00:00Z,30.2791,-87.5561,0.0,2.93,248.3,-9999.0,'1111122,1111122,1111122' 
DISL,ioos:station:DISL:PPTA:1,2015-05-01T01:30:00Z,30.2791,-87.5561,0.0,1.79,250.4,-9999.0,'1111122,1111122,1111122' 
DISL,ioos:station:DISL:PPTA:1,2015-05-01T02:00:00Z,30.2791,-87.5561,0.0,2.13,248.6,-9999.0,'1111122,1111122,1111122' 
DISL,ioos:station:DISL:PPTA:1,2015-05-01T02:30:00Z,30.2791,-87.5561,0.0,2.54,246.1,-9999.0,'1111122,1111122,1111122' 
DISL,ioos:station:DISL:PPTA:1,2015-05-01T03:00:00Z,30.2791,-87.5561,0.0,2.16,247.3,-9999.0,'1111122,1111122,1111122' 
DISL,ioos:station:DISL:PPTA:1,2015-05-01T03:30:00Z,30.2791,-87.5561,0.0,1.57,249.0,-9999.0,'1111122,1111122,1111122' 
DISL,ioos:station:DISL:PPTA:1,2015-05-01T04:00:00Z,30.2791,-87.5561,0.0,1.68,254.6,-9999.0,'1111122,1111122,1111122' 
DISL,ioos:station:DISL:PPTA:1,2015-05-01T04:30:00Z,30.2791,-87.5561,0.0,1.74,257.0,-9999.0,'1111122,1111122,1111122' 
DISL,ioos:station:DISL:PPTA:1,2015-05-01T05:00:00Z,30.2791,-87.5561,0.0,1.74,255.9,-9999.0,'1111122,1111122,1111122' 
DISL,ioos:station:DISL:PPTA:1,2015-05-01T05:30:00Z,30.2791,-87.5561,0.0,1.18,271.7,-9999.0,'1111122,1111122,1111122' 
DISL,ioos:station:DISL:PPTA:1,2015-05-01T06:00:00Z,30.2791,-87.5561,0.0,1.74,255.5,-9999.0,'1111122,1111122,1111122' 
DISL,ioos:station:DISL:PPTA:1,2015-05-01T06:30:00Z,30.2791,-87.5561,0.0,2.22,261.7,-9999.0,'1111122,1111122,1111122' 
DISL,ioos:station:DISL:PPTA:1,2015-05-01T07:00:00Z,30.2791,-87.5561,0.0,2.45,279.1,-9999.0,'1111122,1111122,1111122' 
DISL,ioos:station:DISL:PPTA:1,2015-05-01T07:30:00Z,30.2791,-87.5561,0.0,2.46,271.8,-9999.0,'1111122,1111122,1111122' 
DISL,ioos:station:DISL:PPTA:1,2015-05-01T08:00:00Z,30.2791,-87.5561,0.0,2.68,273.3,-9999.0,'1111122,1111122,1111122' 
DISL,ioos:station:DISL:PPTA:1,2015-05-01T08:30:00Z,30.2791,-87.5561,0.0,2.38,270.3,-9999.0,'1111122,1111122,1111122' 
DISL,ioos:station:DISL:PPTA:1,2015-05-01T09:00:00Z,30.2791,-87.5561,0.0,2.84,280.6,-9999.0,'1111122,1111122,1111122' 
DISL,ioos:station:DISL:PPTA:1,2015-05-01T09:30:00Z,30.2791,-87.5561,0.0,3.5,290.3,-9999.0,'1111122,1111122,1111122' 
DISL,ioos:station:DISL:PPTA:1,2015-05-01T10:00:00Z,30.2791,-87.5561,0.0,3.68,296.5,-9999.0,'1111122,1111122,1111122' 
DISL,ioos:station:DISL:PPTA:1,2015-05-01T10:30:00Z,30.2791,-87.5561,0.0,3.23,302.3,-9999.0,'1111122,1111122,1111122' 
DISL,ioos:station:DISL:PPTA:1,2015-05-01T11:00:00Z,30.2791,-87.5561,0.0,3.07,315.5,-9999.0,'1111122,1111122,1111122' 
DISL,ioos:station:DISL:PPTA:1,2015-05-01T11:30:00Z,30.2791,-87.5561,0.0,3.38,331.9,-9999.0,'1111122,1111122,1111122' 
DISL,ioos:station:DISL:PPTA:1,2015-05-01T12:00:00Z,30.2791,-87.5561,0.0,3.85,356.8,-9999.0,'1111122,1111122,1111122' 
DISL,ioos:station:DISL:PPTA:1,2015-05-01T12:30:00Z,30.2791,-87.5561,0.0,4.14,9.58,-9999.0,'1111122,1111122,1111122' 
DISL,ioos:station:DISL:PPTA:1,2015-05-01T13:00:00Z,30.2791,-87.5561,0.0,4.4,25.55,-9999.0,'1111122,1111122,1111122' 
DISL,ioos:station:DISL:PPTA:1,2015-05-01T13:30:00Z,30.2791,-87.5561,0.0,4.93,38.72,-9999.0,'1111122,1111122,1111122' 
DISL,ioos:station:DISL:PPTA:1,2015-05-01T14:00:00Z,30.2791,-87.5561,0.0,4.86,37.25,-9999.0,'1111122,1111122,1111122' 
DISL,ioos:station:DISL:PPTA:1,2015-05-01T14:30:00Z,30.2791,-87.5561,0.0,5.41,44.01,-9999.0,'1111122,1111122,1111122' 
DISL,ioos:station:DISL:PPTA:1,2015-05-01T15:00:00Z,30.2791,-87.5561,0.0,4.99,39.96,-9999.0,'1111122,1111122,1111122' 
DISL,ioos:station:DISL:PPTA:1,2015-05-01T15:30:00Z,30.2791,-87.5561,0.0,4.91,34.47,-9999.0,'1111122,1111122,1111122' 
DISL,ioos:station:DISL:PPTA:1,2015-05-01T16:00:00Z,30.2791,-87.5561,0.0,4.73,48.88,-9999.0,'1111122,1111122,1111122' 
DISL,ioos:station:DISL:PPTA:1,2015-05-01T16:30:00Z,30.2791,-87.5561,0.0,4.04,55.97,-9999.0,'1111122,1111122,1111122' 
DISL,ioos:station:DISL:PPTA:1,2015-05-01T17:00:00Z,30.2791,-87.5561,0.0,3.63,73.21,-9999.0,'1111122,1111122,1111122' 
DISL,ioos:station:DISL:PPTA:1,2015-05-01T17:30:00Z,30.2791,-87.5561,0.0,1.69,53.54,-9999.0,'1111122,1111122,1111122' 
DISL,ioos:station:DISL:PPTA:1,2015-05-01T18:00:00Z,30.2791,-87.5561,0.0,0.68,16.31,-9999.0,'1111122,1111122,1111122' 
DISL,ioos:station:DISL:PPTA:1,2015-05-01T18:30:00Z,30.2791,-87.5561,0.0,3.05,318.3,-9999.0,'1111122,1111122,1111122' 
DISL,ioos:station:DISL:PPTA:1,2015-05-01T19:00:00Z,30.2791,-87.5561,0.0,4.16,325.8,-9999.0,'1111122,1111122,1111122' 
DISL,ioos:station:DISL:PPTA:1,2015-05-01T19:30:00Z,30.2791,-87.5561,0.0,3.51,294.2,-9999.0,'1111122,1111122,1111122' 
DISL,ioos:station:DISL:PPTA:1,2015-05-01T20:00:00Z,30.2791,-87.5561,0.0,3.07,317.5,-9999.0,'1111122,1111122,1111122' 
DISL,ioos:station:DISL:PPTA:1,2015-05-01T20:30:00Z,30.2791,-87.5561,0.0,4.7,318.6,-9999.0,'1111122,1111122,1111122' 
DISL,ioos:station:DISL:PPTA:1,2015-05-01T21:00:00Z,30.2791,-87.5561,0.0,4.72,320.7,-9999.0,'1111122,1111122,1111122' 
DISL,ioos:station:DISL:PPTA:1,2015-05-01T21:30:00Z,30.2791,-87.5561,0.0,5.47,319.8,-9999.0,'1111122,1111122,1111122' 
DISL,ioos:station:DISL:PPTA:1,2015-05-01T22:00:00Z,30.2791,-87.5561,0.0,4.43,317.4,-9999.0,'1111122,1111122,1111122' 
DISL,ioos:station:DISL:PPTA:1,2015-05-01T22:30:00Z,30.2791,-87.5561,0.0,5.05,5.055,-9999.0,'1111122,1111122,1111122' 
DISL,ioos:station:DISL:PPTA:1,2015-05-01T23:00:00Z,30.2791,-87.5561,0.0,5.05,8.88,-9999.0,'1111122,1111122,1111122' 
DISL,ioos:station:DISL:PPTA:1,2015-05-01T23:30:00Z,30.2791,-87.5561,0.0,4.23,11.8,-9999.0,'1111122,1111122,1111122' 
DISL,ioos:station:DISL:PPTA:1,2015-05-02T00:00:00Z,30.2791,-87.5561,0.0,4.1,15.16,-9999.0,'1111122,1111122,1111122' 
DISL,ioos:station:DISL:PPTA:1,2015-05-02T00:30:00Z,30.2791,-87.5561,0.0,2.91,9.22,-9999.0,'1111122,1111122,1111122' 
DISL,ioos:station:DISL:PPTA:1,2015-05-02T01:00:00Z,30.2791,-87.5561,0.0,2.1,357.4,-9999.0,'1111122,1111122,1111122' 
DISL,ioos:station:DISL:PPTA:1,2015-05-02T01:30:00Z,30.2791,-87.5561,0.0,3.44,16.67,-9999.0,'1111122,1111122,1111122' 
DISL,ioos:station:DISL:PPTA:1,2015-05-02T02:00:00Z,30.2791,-87.5561,0.0,3.38,28.24,-9999.0,'1111122,1111122,1111122' 
DISL,ioos:station:DISL:PPTA:1,2015-05-02T02:30:00Z,30.2791,-87.5561,0.0,4.16,33.96,-9999.0,'1111122,1111122,1111122' 
DISL,ioos:station:DISL:PPTA:1,2015-05-02T03:00:00Z,30.2791,-87.5561,0.0,4.56,34.86,-9999.0,'1111122,1111122,1111122' 
DISL,ioos:station:DISL:PPTA:1,2015-05-02T03:30:00Z,30.2791,-87.5561,0.0,5.15,37.82,-9999.0,'1111122,1111122,1111122' 
DISL,ioos:station:DISL:PPTA:1,2015-05-02T04:00:00Z,30.2791,-87.5561,0.0,4.69,39.63,-9999.0,'1111122,1111122,1111122' 
DISL,ioos:station:DISL:PPTA:1,2015-05-02T04:30:00Z,30.2791,-87.5561,0.0,4.29,35.98,-9999.0,'1111122,1111122,1111122' 
DISL,ioos:station:DISL:PPTA:1,2015-05-02T05:00:00Z,30.2791,-87.5561,0.0,3.74,35.86,-9999.0,'1111122,1111122,1111122' 
DISL,ioos:station:DISL:PPTA:1,2015-05-02T05:30:00Z,30.2791,-87.5561,0.0,4.07,43.54,-9999.0,'1111122,1111122,1111122' 
DISL,ioos:station:DISL:PPTA:1,2015-05-02T06:00:00Z,30.2791,-87.5561,0.0,4.44,42.89,-9999.0,'1111122,1111122,1111122' 
DISL,ioos:station:DISL:PPTA:1,2015-05-02T06:30:00Z,30.2791,-87.5561,0.0,3.8,52.0,-9999.0,'1111122,1111122,1111122' 
DISL,ioos:station:DISL:PPTA:1,2015-05-02T07:00:00Z,30.2791,-87.5561,0.0,3.91,40.72,-9999.0,'1111122,1111122,1111122' 
DISL,ioos:station:DISL:PPTA:1,2015-05-02T07:30:00Z,30.2791,-87.5561,0.0,3.77,38.82,-9999.0,'1111122,1111122,1111122' 
DISL,ioos:station:DISL:PPTA:1,2015-05-02T08:00:00Z,30.2791,-87.5561,0.0,3.48,42.96,-9999.0,'1111122,1111122,1111122' 
DISL,ioos:station:DISL:PPTA:1,2015-05-02T08:30:00Z,30.2791,-87.5561,0.0,2.49,51.65,-9999.0,'1111122,1111122,1111122' 
DISL,ioos:station:DISL:PPTA:1,2015-05-02T09:00:00Z,30.2791,-87.5561,0.0,2.83,52.44,-9999.0,'1111122,1111122,1111122' 
DISL,ioos:station:DISL:PPTA:1,2015-05-02T09:30:00Z,30.2791,-87.5561,0.0,2.66,32.78,-9999.0,'1111122,1111122,1111122' 
DISL,ioos:station:DISL:PPTA:1,2015-05-02T10:00:00Z,30.2791,-87.5561,0.0,2.47,46.23,-9999.0,'1111122,1111122,1111122' 
DISL,ioos:station:DISL:PPTA:1,2015-05-02T10:30:00Z,30.2791,-87.5561,0.0,2.41,26.08,-9999.0,'1111122,1111122,1111122' 
DISL,ioos:station:DISL:PPTA:1,2015-05-02T11:00:00Z,30.2791,-87.5561,0.0,2.37,11.01,-9999.0,'1111122,1111122,1111122' 
DISL,ioos:station:DISL:PPTA:1,2015-05-02T11:30:00Z,30.2791,-87.5561,0.0,2.21,7.809,-9999.0,'1111122,1111122,1111122' 
DISL,ioos:station:DISL:PPTA:1,2015-05-02T12:00:00Z,30.2791,-87.5561,0.0,1.69,2.607,-9999.0,'1111122,1111122,1111122' 
DISL,ioos:station:DISL:PPTA:1,2015-05-02T12:30:00Z,30.2791,-87.5561,0.0,2.14,37.33,-9999.0,'1111122,1111122,1111122' 
DISL,ioos:station:DISL:PPTA:1,2015-05-02T13:00:00Z,30.2791,-87.5561,0.0,2.11,27.2,-9999.0,'1111122,1111122,1111122' 
DISL,ioos:station:DISL:PPTA:1,2015-05-02T13:30:00Z,30.2791,-87.5561,0.0,2.34,57.92,-9999.0,'1111122,1111122,1111122' 
DISL,ioos:station:DISL:PPTA:1,2015-05-02T14:00:00Z,30.2791,-87.5561,0.0,2.89,62.48,-9999.0,'1111122,1111122,1111122' 
DISL,ioos:station:DISL:PPTA:1,2015-05-02T14:30:00Z,30.2791,-87.5561,0.0,2.63,69.31,-9999.0,'1111122,1111122,1111122' 
DISL,ioos:station:DISL:PPTA:1,2015-05-02T15:00:00Z,30.2791,-87.5561,0.0,1.97,66.76,-9999.0,'1111122,1111122,1111122' 
DISL,ioos:station:DISL:PPTA:1,2015-05-02T15:30:00Z,30.2791,-87.5561,0.0,2.04,130.9,-9999.0,'1111122,1111122,1111122' 
DISL,ioos:station:DISL:PPTA:1,2015-05-02T16:00:00Z,30.2791,-87.5561,0.0,3.12,113.1,-9999.0,'1111122,1111122,1111122' 
DISL,ioos:station:DISL:PPTA:1,2015-05-02T16:30:00Z,30.2791,-87.5561,0.0,3.34,112.4,-9999.0,'1111122,1111122,1111122' 
DISL,ioos:station:DISL:PPTA:1,2015-05-02T17:00:00Z,30.2791,-87.5561,0.0,3.12,114.4,-9999.0,'1111122,1111122,1111122' 
DISL,ioos:station:DISL:PPTA:1,2015-05-02T17:30:00Z,30.2791,-87.5561,0.0,2.85,121.5,-9999.0,'1111122,1111122,1111122' 
DISL,ioos:station:DISL:PPTA:1,2015-05-02T18:00:00Z,30.2791,-87.5561,0.0,2.89,126.8,-9999.0,'1111122,1111122,1111122' 
DISL,ioos:station:DISL:PPTA:1,2015-05-02T18:30:00Z,30.2791,-87.5561,0.0,2.92,141.7,-9999.0,'1111122,1111122,1111122' 
DISL,ioos:station:DISL:PPTA:1,2015-05-02T19:00:00Z,30.2791,-87.5561,0.0,2.93,144.8,-9999.0,'1111122,1111122,1111122' 
DISL,ioos:station:DISL:PPTA:1,2015-05-02T19:30:00Z,30.2791,-87.5561,0.0,2.78,151.2,-9999.0,'1111122,1111122,1111122' 
DISL,ioos:station:DISL:PPTA:1,2015-05-02T20:00:00Z,30.2791,-87.5561,0.0,3.03,156.4,-9999.0,'1111122,1111122,1111122' 
DISL,ioos:station:DISL:PPTA:1,2015-05-02T20:30:00Z,30.2791,-87.5561,0.0,3.03,162.2,-9999.0,'1111122,1111122,1111122' 
DISL,ioos:station:DISL:PPTA:1,2015-05-02T21:00:00Z,30.2791,-87.5561,0.0,2.71,164.0,-9999.0,'1111122,1111122,1111122' 
DISL,ioos:station:DISL:PPTA:1,2015-05-02T21:30:00Z,30.2791,-87.5561,0.0,3.04,163.7,-9999.0,'1111122,1111122,1111122' 
DISL,ioos:station:DISL:PPTA:1,2015-05-02T22:00:00Z,30.2791,-87.5561,0.0,3.14,170.3,-9999.0,'1111122,1111122,1111122' 
DISL,ioos:station:DISL:PPTA:1,2015-05-02T22:30:00Z,30.2791,-87.5561,0.0,2.95,170.8,-9999.0,'1111122,1111122,1111122' 
DISL,ioos:station:DISL:PPTA:1,2015-05-02T23:00:00Z,30.2791,-87.5561,0.0,2.92,173.7,-9999.0,'1111122,1111122,1111122' 
DISL,ioos:station:DISL:PPTA:1,2015-05-02T23:30:00Z,30.2791,-87.5561,0.0,2.49,170.8,-9999.0,'1111122,1111122,1111122' 
DISL,ioos:station:DISL:PPTA:1,2015-05-03T00:00:00Z,30.2791,-87.5561,0.0,2.73,178.6,-9999.0,'1111122,1111122,1111122' 
DISL,ioos:station:DISL:PPTA:1,2015-05-03T00:30:00Z,30.2791,-87.5561,0.0,2.44,182.1,-9999.0,'1111122,1111122,1111122' 
DISL,ioos:station:DISL:PPTA:1,2015-05-03T01:00:00Z,30.2791,-87.5561,0.0,1.71,185.9,-9999.0,'1111122,1111122,1111122' 
DISL,ioos:station:DISL:PPTA:1,2015-05-03T01:30:00Z,30.2791,-87.5561,0.0,0.86,196.9,-9999.0,'1111122,1111122,1111122' 
DISL,ioos:station:DISL:PPTA:1,2015-05-03T02:00:00Z,30.2791,-87.5561,0.0,1.06,205.9,-9999.0,'1111122,1111122,1111122' 
DISL,ioos:station:DISL:PPTA:1,2015-05-03T02:30:00Z,30.2791,-87.5561,0.0,0.36,238.8,-9999.0,'1111122,1111122,1111122' 
DISL,ioos:station:DISL:PPTA:1,2015-05-03T03:00:00Z,30.2791,-87.5561,0.0,0.5,215.7,-9999.0,'1111122,1111122,1111122' 
DISL,ioos:station:DISL:PPTA:1,2015-05-03T03:30:00Z,30.2791,-87.5561,0.0,0.77,209.5,-9999.0,'1111122,1111122,1111122' 
DISL,ioos:station:DISL:PPTA:1,2015-05-03T04:00:00Z,30.2791,-87.5561,0.0,0.75,195.3,-9999.0,'1111122,1111122,1111122' 
DISL,ioos:station:DISL:PPTA:1,2015-05-03T04:30:00Z,30.2791,-87.5561,0.0,0.5,245.5,-9999.0,'1111122,1111122,1111122' 
DISL,ioos:station:DISL:PPTA:1,2015-05-03T05:00:00Z,30.2791,-87.5561,0.0,0.44,235.8,-9999.0,'1111122,1111122,1111122' 
DISL,ioos:station:DISL:PPTA:1,2015-05-03T05:30:00Z,30.2791,-87.5561,0.0,0.68,263.9,-9999.0,'1111122,1111122,1111122' 
DISL,ioos:station:DISL:PPTA:1,2015-05-03T06:00:00Z,30.2791,-87.5561,0.0,1.11,180.5,-9999.0,'1111122,1111122,1111122' 
DISL,ioos:station:DISL:PPTA:1,2015-05-03T06:30:00Z,30.2791,-87.5561,0.0,1.57,178.6,-9999.0,'1111122,1111122,1111122' 
DISL,ioos:station:DISL:PPTA:1,2015-05-03T07:00:00Z,30.2791,-87.5561,0.0,1.04,180.1,-9999.0,'1111122,1111122,1111122' 
DISL,ioos:station:DISL:PPTA:1,2015-05-03T07:30:00Z,30.2791,-87.5561,0.0,0.54,313.4,-9999.0,'1111122,1111122,1111122' 
DISL,ioos:station:DISL:PPTA:1,2015-05-03T08:00:00Z,30.2791,-87.5561,0.0,0.68,295.1,-9999.0,'1111122,1111122,1111122' 
DISL,ioos:station:DISL:PPTA:1,2015-05-03T08:30:00Z,30.2791,-87.5561,0.0,0.42,325.6,-9999.0,'1111122,1111122,1111122' 
DISL,ioos:station:DISL:PPTA:1,2015-05-03T09:00:00Z,30.2791,-87.5561,0.0,1.23,14.47,-9999.0,'1111122,1111122,1111122' 
DISL,ioos:station:DISL:PPTA:1,2015-05-03T09:30:00Z,30.2791,-87.5561,0.0,1.07,43.12,-9999.0,'1111122,1111122,1111122' 
DISL,ioos:station:DISL:PPTA:1,2015-05-03T10:00:00Z,30.2791,-87.5561,0.0,0.78,323.7,-9999.0,'1111122,1111122,1111122' 
DISL,ioos:station:DISL:PPTA:1,2015-05-03T10:30:00Z,30.2791,-87.5561,0.0,0.98,311.5,-9999.0,'1111122,1111122,1111122' 
DISL,ioos:station:DISL:PPTA:1,2015-05-03T11:00:00Z,30.2791,-87.5561,0.0,0.7,336.3,-9999.0,'1111122,1111122,1111122' 
DISL,ioos:station:DISL:PPTA:1,2015-05-03T11:30:00Z,30.2791,-87.5561,0.0,1.19,13.88,-9999.0,'1111122,1111122,1111122' 
DISL,ioos:station:DISL:PPTA:1,2015-05-03T12:00:00Z,30.2791,-87.5561,0.0,1.94,18.86,-9999.0,'1111122,1111122,1111122' 
DISL,ioos:station:DISL:PPTA:1,2015-05-03T12:30:00Z,30.2791,-87.5561,0.0,2.06,18.87,-9999.0,'1111122,1111122,1111122' 
DISL,ioos:station:DISL:PPTA:1,2015-05-03T13:00:00Z,30.2791,-87.5561,0.0,1.93,45.13,-9999.0,'1111122,1111122,1111122' 
DISL,ioos:station:DISL:PPTA:1,2015-05-03T13:30:00Z,30.2791,-87.5561,0.0,1.97,61.17,-9999.0,'1111122,1111122,1111122' 
DISL,ioos:station:DISL:PPTA:1,2015-05-03T14:00:00Z,30.2791,-87.5561,0.0,2.77,74.16,-9999.0,'1111122,1111122,1111122' 
DISL,ioos:station:DISL:PPTA:1,2015-05-03T14:30:00Z,30.2791,-87.5561,0.0,2.89,75.77,-9999.0,'1111122,1111122,1111122' 
DISL,ioos:station:DISL:PPTA:1,2015-05-03T15:00:00Z,30.2791,-87.5561,0.0,2.24,79.77,-9999.0,'1111122,1111122,1111122' 
DISL,ioos:station:DISL:PPTA:1,2015-05-03T15:30:00Z,30.2791,-87.5561,0.0,2.64,121.9,-9999.0,'1111122,1111122,1111122' 
DISL,ioos:station:DISL:PPTA:1,2015-05-03T16:00:00Z,30.2791,-87.5561,0.0,2.82,114.5,-9999.0,'1111122,1111122,1111122' 
DISL,ioos:station:DISL:PPTA:1,2015-05-03T16:30:00Z,30.2791,-87.5561,0.0,2.99,113.5,-9999.0,'1111122,1111122,1111122' 
DISL,ioos:station:DISL:PPTA:1,2015-05-03T17:00:00Z,30.2791,-87.5561,0.0,3.56,117.5,-9999.0,'1111122,1111122,1111122' 
DISL,ioos:station:DISL:PPTA:1,2015-05-03T17:30:00Z,30.2791,-87.5561,0.0,3.37,117.1,-9999.0,'1111122,1111122,1111122' 
DISL,ioos:station:DISL:PPTA:1,2015-05-03T18:00:00Z,30.2791,-87.5561,0.0,3.87,119.0,-9999.0,'1111122,1111122,1111122' 
DISL,ioos:station:DISL:PPTA:1,2015-05-03T18:30:00Z,30.2791,-87.5561,0.0,4.36,108.9,-9999.0,'1111122,1111122,1111122' 
DISL,ioos:station:DISL:PPTA:1,2015-05-03T19:00:00Z,30.2791,-87.5561,0.0,4.43,116.9,-9999.0,'1111122,1111122,1111122' 
DISL,ioos:station:DISL:PPTA:1,2015-05-03T19:30:00Z,30.2791,-87.5561,0.0,3.75,120.5,-9999.0,'1111122,1111122,1111122' 
DISL,ioos:station:DISL:PPTA:1,2015-05-03T20:00:00Z,30.2791,-87.5561,0.0,3.75,122.0,-9999.0,'1111122,1111122,1111122' 
DISL,ioos:station:DISL:PPTA:1,2015-05-03T20:30:00Z,30.2791,-87.5561,0.0,3.77,116.6,-9999.0,'1111122,1111122,1111122' 
DISL,ioos:station:DISL:PPTA:1,2015-05-03T21:00:00Z,30.2791,-87.5561,0.0,3.91,117.0,-9999.0,'1111122,1111122,1111122' 
DISL,ioos:station:DISL:PPTA:1,2015-05-03T21:30:00Z,30.2791,-87.5561,0.0,3.42,122.1,-9999.0,'1111122,1111122,1111122' 
DISL,ioos:station:DISL:PPTA:1,2015-05-03T22:00:00Z,30.2791,-87.5561,0.0,3.56,117.5,-9999.0,'1111122,1111122,1111122' 
DISL,ioos:station:DISL:PPTA:1,2015-05-03T22:30:00Z,30.2791,-87.5561,0.0,3.19,112.8,-9999.0,'1111122,1111122,1111122' 
DISL,ioos:station:DISL:PPTA:1,2015-05-03T23:00:00Z,30.2791,-87.5561,0.0,3.25,119.7,-9999.0,'1111122,1111122,1111122' 
DISL,ioos:station:DISL:PPTA:1,2015-05-03T23:30:00Z,30.2791,-87.5561,0.0,3.83,121.2,-9999.0,'1111122,1111122,1111122' 
DISL,ioos:station:DISL:PPTA:1,2015-05-04T00:00:00Z,30.2791,-87.5561,0.0,3.45,116.6,-9999.0,'1111122,1111122,1111122' 
DISL,ioos:station:DISL:PPTA:1,2015-05-04T00:30:00Z,30.2791,-87.5561,0.0,3.38,124.2,-9999.0,'1111122,1111122,1111122' 
DISL,ioos:station:DISL:PPTA:1,2015-05-04T01:00:00Z,30.2791,-87.5561,0.0,4.16,131.8,-9999.0,'1111122,1111122,1111122' 
DISL,ioos:station:DISL:PPTA:1,2015-05-04T01:30:00Z,30.2791,-87.5561,0.0,4.49,132.4,-9999.0,'1111122,1111122,1111122' 
DISL,ioos:station:DISL:PPTA:1,2015-05-04T02:00:00Z,30.2791,-87.5561,0.0,4.59,136.0,-9999.0,'1111122,1111122,1111122' 
DISL,ioos:station:DISL:PPTA:1,2015-05-04T02:30:00Z,30.2791,-87.5561,0.0,4.96,134.2,-9999.0,'1111122,1111122,1111122' 
DISL,ioos:station:DISL:PPTA:1,2015-05-04T03:00:00Z,30.2791,-87.5561,0.0,5.64,131.6,-9999.0,'1111122,1111122,1111122' 
DISL,ioos:station:DISL:PPTA:1,2015-05-04T03:30:00Z,30.2791,-87.5561,0.0,6.06,136.5,-9999.0,'1111122,1111122,1111122' 
DISL,ioos:station:DISL:PPTA:1,2015-05-04T04:00:00Z,30.2791,-87.5561,0.0,5.94,136.0,-9999.0,'1111122,1111122,1111122' 
DISL,ioos:station:DISL:PPTA:1,2015-05-04T04:30:00Z,30.2791,-87.5561,0.0,5.5,137.8,-9999.0,'1111122,1111122,1111122' 
DISL,ioos:station:DISL:PPTA:1,2015-05-04T05:00:00Z,30.2791,-87.5561,0.0,4.85,133.5,-9999.0,'1111122,1111122,1111122' 
DISL,ioos:station:DISL:PPTA:1,2015-05-04T05:30:00Z,30.2791,-87.5561,0.0,4.81,134.9,-9999.0,'1111122,1111122,1111122' 
DISL,ioos:station:DISL:PPTA:1,2015-05-04T06:00:00Z,30.2791,-87.5561,0.0,3.68,137.6,-9999.0,'1111122,1111122,1111122' 
DISL,ioos:station:DISL:PPTA:1,2015-05-04T06:30:00Z,30.2791,-87.5561,0.0,3.65,144.7,-9999.0,'1111122,1111122,1111122' 
DISL,ioos:station:DISL:PPTA:1,2015-05-04T07:00:00Z,30.2791,-87.5561,0.0,3.12,137.4,-9999.0,'1111122,1111122,1111122' 
DISL,ioos:station:DISL:PPTA:1,2015-05-04T07:30:00Z,30.2791,-87.5561,0.0,2.87,128.8,-9999.0,'1111122,1111122,1111122' 
DISL,ioos:station:DISL:PPTA:1,2015-05-04T08:00:00Z,30.2791,-87.5561,0.0,2.58,112.6,-9999.0,'1111122,1111122,1111122' 
DISL,ioos:station:DISL:PPTA:1,2015-05-04T08:30:00Z,30.2791,-87.5561,0.0,3.2,118.0,-9999.0,'1111122,1111122,1111122' 
DISL,ioos:station:DISL:PPTA:1,2015-05-04T09:00:00Z,30.2791,-87.5561,0.0,2.56,111.0,-9999.0,'1111122,1111122,1111122' 
DISL,ioos:station:DISL:PPTA:1,2015-05-04T09:30:00Z,30.2791,-87.5561,0.0,2.65,103.4,-9999.0,'1111122,1111122,1111122' 
DISL,ioos:station:DISL:PPTA:1,2015-05-04T10:00:00Z,30.2791,-87.5561,0.0,2.79,99.3,-9999.0,'1111122,1111122,1111122' 
DISL,ioos:station:DISL:PPTA:1,2015-05-04T10:30:00Z,30.2791,-87.5561,0.0,3.23,98.6,-9999.0,'1111122,1111122,1111122' 
DISL,ioos:station:DISL:PPTA:1,2015-05-04T11:00:00Z,30.2791,-87.5561,0.0,3.67,99.0,-9999.0,'1111122,1111122,1111122' 
DISL,ioos:station:DISL:PPTA:1,2015-05-04T11:30:00Z,30.2791,-87.5561,0.0,4.71,105.1,-9999.0,'1111122,1111122,1111122' 
DISL,ioos:station:DISL:PPTA:1,2015-05-04T12:00:00Z,30.2791,-87.5561,0.0,5.57,107.5,-9999.0,'1111122,1111122,1111122' 
DISL,ioos:station:DISL:PPTA:1,2015-05-04T12:30:00Z,30.2791,-87.5561,0.0,5.4,105.5,-9999.0,'1111122,1111122,1111122' 
DISL,ioos:station:DISL:PPTA:1,2015-05-04T13:00:00Z,30.2791,-87.5561,0.0,5.36,104.7,-9999.0,'1111122,1111122,1111122' 
DISL,ioos:station:DISL:PPTA:1,2015-05-04T13:30:00Z,30.2791,-87.5561,0.0,5.44,104.8,-9999.0,'1111122,1111122,1111122' 
DISL,ioos:station:DISL:PPTA:1,2015-05-04T14:00:00Z,30.2791,-87.5561,0.0,5.58,102.3,-9999.0,'1111122,1111122,1111122' 
DISL,ioos:station:DISL:PPTA:1,2015-05-04T14:30:00Z,30.2791,-87.5561,0.0,5.23,102.9,-9999.0,'1111122,1111122,1111122' 
DISL,ioos:station:DISL:PPTA:1,2015-05-04T15:00:00Z,30.2791,-87.5561,0.0,6.26,98.7,-9999.0,'1111122,1111122,1111122' 
DISL,ioos:station:DISL:PPTA:1,2015-05-04T15:30:00Z,30.2791,-87.5561,0.0,5.85,104.3,-9999.0,'1111122,1111122,1111122' 
DISL,ioos:station:DISL:PPTA:1,2015-05-04T16:00:00Z,30.2791,-87.5561,0.0,5.34,106.6,-9999.0,'1111122,1111122,1111122' 
DISL,ioos:station:DISL:PPTA:1,2015-05-04T16:30:00Z,30.2791,-87.5561,0.0,5.72,105.5,-9999.0,'1111122,1111122,1111122' 
DISL,ioos:station:DISL:PPTA:1,2015-05-04T17:00:00Z,30.2791,-87.5561,0.0,5.64,106.5,-9999.0,'1111122,1111122,1111122' 
DISL,ioos:station:DISL:PPTA:1,2015-05-04T17:30:00Z,30.2791,-87.5561,0.0,5.31,112.3,-9999.0,'1111122,1111122,1111122' 
DISL,ioos:station:DISL:PPTA:1,2015-05-04T18:00:00Z,30.2791,-87.5561,0.0,5.33,112.4,-9999.0,'1111122,1111122,1111122' 
DISL,ioos:station:DISL:PPTA:1,2015-05-04T18:30:00Z,30.2791,-87.5561,0.0,5.05,112.5,-9999.0,'1111122,1111122,1111122' 
DISL,ioos:station:DISL:PPTA:1,2015-05-04T19:00:00Z,30.2791,-87.5561,0.0,5.02,115.1,-9999.0,'1111122,1111122,1111122' 
DISL,ioos:station:DISL:PPTA:1,2015-05-04T19:30:00Z,30.2791,-87.5561,0.0,4.99,119.6,-9999.0,'1111122,1111122,1111122' 
DISL,ioos:station:DISL:PPTA:1,2015-05-04T20:00:00Z,30.2791,-87.5561,0.0,5.03,126.7,-9999.0,'1111122,1111122,1111122' 
DISL,ioos:station:DISL:PPTA:1,2015-05-04T20:30:00Z,30.2791,-87.5561,0.0,4.87,133.8,-9999.0,'1111122,1111122,1111122' 
DISL,ioos:station:DISL:PPTA:1,2015-05-04T21:00:00Z,30.2791,-87.5561,0.0,4.84,136.8,-9999.0,'1111122,1111122,1111122' 
DISL,ioos:station:DISL:PPTA:1,2015-05-04T21:30:00Z,30.2791,-87.5561,0.0,4.81,144.3,-9999.0,'1111122,1111122,1111122' 
DISL,ioos:station:DISL:PPTA:1,2015-05-04T22:00:00Z,30.2791,-87.5561,0.0,4.39,154.1,-9999.0,'1111122,1111122,1111122' 
DISL,ioos:station:DISL:PPTA:1,2015-05-04T22:30:00Z,30.2791,-87.5561,0.0,4.14,152.7,-9999.0,'1111122,1111122,1111122' 
DISL,ioos:station:DISL:PPTA:1,2015-05-04T23:00:00Z,30.2791,-87.5561,0.0,4.48,146.5,-9999.0,'1111122,1111122,1111122' 
DISL,ioos:station:DISL:PPTA:1,2015-05-04T23:30:00Z,30.2791,-87.5561,0.0,4.76,134.3,-9999.0,'1111122,1111122,1111122' 
DISL,ioos:station:DISL:PPTA:1,2015-05-05T00:00:00Z,30.2791,-87.5561,0.0,5.37,134.5,-9999.0,'1111122,1111122,1111122' 
DISL,ioos:station:DISL:PPTA:1,2015-05-05T00:30:00Z,30.2791,-87.5561,0.0,4.0,128.9,-9999.0,'1111122,1111122,1111122' 
DISL,ioos:station:DISL:PPTA:1,2015-05-05T01:00:00Z,30.2791,-87.5561,0.0,4.82,119.1,-9999.0,'1111122,1111122,1111122' 
DISL,ioos:station:DISL:PPTA:1,2015-05-05T01:30:00Z,30.2791,-87.5561,0.0,4.46,122.6,-9999.0,'1111122,1111122,1111122' 
DISL,ioos:station:DISL:PPTA:1,2015-05-05T02:00:00Z,30.2791,-87.5561,0.0,3.62,127.1,-9999.0,'1111122,1111122,1111122' 
DISL,ioos:station:DISL:PPTA:1,2015-05-05T02:30:00Z,30.2791,-87.5561,0.0,2.39,124.1,-9999.0,'1111122,1111122,1111122' 
DISL,ioos:station:DISL:PPTA:1,2015-05-05T03:00:00Z,30.2791,-87.5561,0.0,2.24,126.9,-9999.0,'1111122,1111122,1111122' 
DISL,ioos:station:DISL:PPTA:1,2015-05-05T03:30:00Z,30.2791,-87.5561,0.0,2.88,116.0,-9999.0,'1111122,1111122,1111122' 
DISL,ioos:station:DISL:PPTA:1,2015-05-05T04:00:00Z,30.2791,-87.5561,0.0,2.52,112.0,-9999.0,'1111122,1111122,1111122' 
DISL,ioos:station:DISL:PPTA:1,2015-05-05T04:30:00Z,30.2791,-87.5561,0.0,1.88,106.2,-9999.0,'1111122,1111122,1111122' 